This is the latest recevied weather packets stored in our database for station/object K4DNM. If no packets are shown the sender has not sent any weather packets the latest 10 day(s).
| Time | Temp. | Humidity | Pressure | Rain* | Wind** | Luminosity | Snow |
|---|---|---|---|---|---|---|---|
| 1778114635 | 23.33° C | 66% | 1011 hPa | 0 mm | - | 0 W/m² | - |
| 1778114335 | 23.33° C | 66% | 1010.9 hPa | 0 mm | - | 0 W/m² | - |
| 1778114093 | 23.33° C | 65% | 1010.6 hPa | 0 mm | - | 0 W/m² | - |
| 1778113733 | 23.33° C | 65% | 1010.6 hPa | 0 mm | - | 0 W/m² | - |
| 1778113433 | 23.89° C | 65% | 1010.7 hPa | 0 mm | - | 0 W/m² | - |
| 1778113130 | 23.89° C | 64% | 1010.7 hPa | 0 mm | - | 0 W/m² | - |
| 1778112829 | 23.89° C | 63% | 1010.8 hPa | 0 mm | - | 0 W/m² | - |
| 1778112529 | 24.44° C | 63% | 1010.7 hPa | 0 mm | - | 0 W/m² | - |
| 1778112229 | 24.44° C | 62% | 1010.6 hPa | 0 mm | - | 2 W/m² | - |
| 1778111930 | 24.44° C | 62% | 1010.6 hPa | 0 mm | - | 3 W/m² | - |
| 1778111630 | 24.44° C | 62% | 1010.5 hPa | 0 mm | - | 5 W/m² | - |
| 1778111330 | 24.44° C | 62% | 1010.5 hPa | 0 mm | - | 6 W/m² | - |
| 1778111029 | 25° C | 62% | 1010.5 hPa | 0 mm | - | 7 W/m² | - |
| 1778110789 | 25° C | 62% | 1010.5 hPa | 0 mm | - | 7 W/m² | - |
| 1778110491 | 25° C | 61% | 1010.4 hPa | 0 mm | - | 10 W/m² | - |
| 1778110128 | 25° C | 63% | 1010.4 hPa | 0 mm | - | 13 W/m² | - |
| 1778109887 | 25° C | 62% | 1010.4 hPa | 0 mm | - | 15 W/m² | - |
| 1778109527 | 25° C | 63% | 1010.3 hPa | 0 mm | - | 16 W/m² | - |
| 1778109226 | 25.56° C | 62% | 1010.3 hPa | 0 mm | - | 17 W/m² | - |
| 1778108625 | 25.56° C | 61% | 1010.4 hPa | 0 mm | - | 31 W/m² | - |
| 1778108326 | 25.56° C | 62% | 1010.3 hPa | 0 mm | - | 37 W/m² | - |
| 1778108023 | 25.56° C | 61% | 1010.3 hPa | 0 mm | - | 32 W/m² | - |
| 1778107721 | 25.56° C | 60% | 1010.3 hPa | 0 mm | - | 26 W/m² | - |
| 1778107420 | 25.56° C | 60% | 1010.2 hPa | 0 mm | - | 27 W/m² | - |
| 1778107121 | 25.56° C | 59% | 1010.2 hPa | 0 mm | - | 36 W/m² | - |
* Rain latest hour (hover to see other rain measurements)
** Current wind speed in m/s (hover to see current wind gust speed)